{"data":{"norad_id":36111,"epoch":"2026-09-19T15:32:17.286720Z","epoch_age_seconds":88023,"freshness":"FRESH","line1":"1 36111U 09070A   26262.64742230  .00000028  00000+0  00000+0 0  9992","line2":"2 36111  65.0719  67.7525 0001438 346.3798  16.9615  2.13103735130445","mean_motion":2.13103735,"eccentricity":0.0001438,"inclination_deg":65.0719,"raan_deg":67.7525,"arg_perigee_deg":346.3798,"mean_anomaly_deg":16.9615,"bstar":0,"rev_number":13044,"period_min":675.72724616957,"perigee_km":19126.080943014,"apogee_km":19133.417011021,"semimajor_km":25507.885977017,"source":"CELESTRAK","updated_at":"2026-09-20T09:00:46.274173Z"}}